Location: Adelboden
(46.4918°N, 7.5593°E)
Time: 22:35:33
(UTC+00:00)

Daily predictions for brighter satellites

Satellite Brightness Start Highest point End
(mag) Time Altitude Azimuth Time Altitude Azimuth Time Altitude Azimuth
COSMO-SKYMED 1 2.7 17:45:50 10° NNE 17:50:13 88° W 17:54:33 10° SSW
Ariane Rocket 4.4 17:49:36 10° ESE 17:53:11 20° ENE 17:56:48 10° NNE
H-2A R/B 2.5 17:49:13 10° SE 17:53:50 39° ENE 17:58:37 10° N
Cosmos 1689 Rocket 3.3 17:51:07 10° N 17:54:01 47° WNW 17:56:52 10° SSW
SJ 16-02 4.1 17:51:45 10° WSW 17:55:10 22° WNW 17:58:36 10° N
Cosmos 2263 Rocket 3.3 17:53:02 10° SW 17:58:25 47° WNW 18:03:50 10° NNE
USA 116 4.0 17:56:52 10° NNE 18:00:25 43° E 18:04:23 10° S
Cosmos 1939 Rocket 3.7 17:57:42 10° S 18:01:47 58° W 18:05:53 10° NNW
Cosmos 1844 Rocket 2.9 17:57:34 10° S 18:02:50 46° ESE 18:08:10 10° NE
Cosmos 372 Rocket 4.0 17:59:27 10° SSW 18:04:42 82° ESE 18:09:56 10° NNE
Cosmos 1707 2.6 18:01:29 10° N 18:05:20 73° E 18:09:09 10° SSE
Cosmos 1626 4.2 18:05:23 10° NE 18:06:32 11° ENE 18:07:28 10° E
NOSS 3-2 (C) 4.2 17:59:33 10° NW 18:06:54 63° NE 18:15:14 10° SE
CZ-2C R/B 3.7 18:06:22 10° SSW 18:07:10 11° SSW 18:07:57 10° S
Cosmos 1844 4.0 18:04:58 10° S 18:10:18 43° ESE 18:15:36 10° NE
Cosmos 2034 Rocket 4.3 18:04:43 10° SSE 18:10:44 46° E 18:16:43 10° NNE
ISS -2.9 18:08:00 10° W 18:11:17 48° NNW 18:14:35 10° ENE
NOSS 3-4 (A) 4.2 18:06:57 10° SSE 18:11:45 27° ESE 18:16:46 10° ENE
NOSS 3-4 (C) 4.2 18:07:05 10° SSE 18:11:52 26° ESE 18:16:52 10° ENE
USA 186 3.3 18:11:03 13° ESE 18:12:54 19° ENE 18:15:18 10° NNE
Meteor 1-12 Rocket 4.3 18:08:14 10° S 18:14:03 70° E 18:19:49 10° NNE
Cosmos 1300 Rocket 3.5 18:14:59 10° S 18:19:23 73° E 18:23:50 10° NNE
Okean 1 Rocket 4.0 18:18:54 10° SSE 18:22:42 28° E 18:26:32 10° NNE
Sich 1 Rocket 4.1 18:19:16 10° SSW 18:23:45 65° W 18:28:18 10° N
Cosmos 2298 Rocket 4.0 18:20:39 10° SSW 18:25:58 85° ESE 18:31:21 10° NNE
CENTAUR R/B 3.2 18:18:00 10° NW 18:26:01 74° NE 18:34:46 10° SE
Resurs 01 Rocket 3.6 18:25:51 11° ENE 18:26:36 12° ENE 18:28:14 10° NE
Cosmos 1833 Rocket 4.0 18:22:43 10° N 18:27:12 23° NE 18:30:12 16° E
CSL-04 Debris 4.2 18:24:31 10° SSE 18:29:55 84° WSW 18:35:21 10° NNW
CSL-04 Rocket 3.8 18:26:25 10° SSE 18:31:52 85° WSW 18:37:26 10° NNW
Cosmos 1766 4.1 18:30:20 10° SSE 18:33:41 28° E 18:37:06 10° NNE
Okean 2 Rocket 3.2 18:29:27 10° SSW 18:33:57 79° W 18:38:25 10° N
ATLAS 2AS CENTAUR R/B 3.4 18:26:52 10° S 18:34:07 41° ESE 18:41:23 10° NE
YAOGAN 1 3.5 18:30:22 10° S 18:34:34 50° W 18:38:47 10° NNW
Cosmos 1025 Rocket 3.2 18:30:21 10° NNW 18:34:45 79° W 18:39:08 10° S
ATLAS 3B R/B 3.4 18:31:50 10° NNW 18:38:08 38° NE 18:42:35 19° E
SWAS 4.4 18:36:27 10° NNW 18:40:46 86° WSW 18:44:38 12° SSE
Abrixas rocket 1.8 18:38:23 10° WNW 18:41:13 78° SSW 18:42:11 37° ESE
CREW DRAGON DEMO-1 DEB 2.7 18:40:08 10° WNW 18:43:10 90° SSW 18:44:16 36° ESE
Cosmos 1536 Rocket 3.6 18:40:04 10° N 18:44:33 84° W 18:49:01 10° S
Cosmos 1125 Rocket 3.4 18:41:18 10° SSW 18:46:36 80° ESE 18:51:57 10° NNE
SJ-6B 3.1 18:48:31 30° ESE 18:49:48 41° ENE 18:53:24 10° N
CZ-4 R/B 3.7 18:48:43 10° SSW 18:52:17 27° W 18:55:51 10° NW
CZ-2C R/B 4.1 18:49:05 10° S 18:54:17 51° W 18:59:48 10° NNW
Cosmos 1464 Rocket 4.5 18:48:48 10° SSW 18:54:52 63° WNW 19:01:03 10° N
USA 238 DEB 4.3 18:48:06 10° NW 18:55:13 61° WSW 19:02:35 10° SSE
USA 238 4.3 18:48:12 10° NW 18:55:20 62° WSW 19:02:42 10° SSE
Cosmos 1674 2.6 18:53:03 10° N 18:56:56 87° WSW 19:00:17 13° S
Cosmos 2285 Rocket 3.9 18:51:01 10° SSW 18:57:18 77° ESE 19:03:40 10° NNE
Cosmos 2026 Rocket 4.2 18:51:29 10° N 18:57:43 53° ENE 19:02:16 19° SSE
Cosmos 1092 Rocket 3.9 18:51:47 10° N 18:57:57 67° E 19:04:08 10° SSE
MOS 1 Rocket 3.4 18:58:51 10° N 19:03:13 66° WNW 19:07:26 10° SSW
FREGAT/IRIS 3.7 19:04:41 28° NNE 19:04:41 28° NNE 19:06:09 10° N
TSX-5 3.9 19:04:44 10° SSW 19:08:30 65° ESE 19:13:22 10° NE
ARGOS 3.6 19:04:31 10° S 19:09:49 63° WSW 19:15:11 10° NNW
CZ-2C R/B 2.6 19:07:56 10° NNE 19:13:31 70° ESE 19:19:07 10° S
Cosmos 1340 Rocket 3.5 19:15:11 37° NE 19:15:11 37° NE 19:17:59 10° NNE
Cosmos 2279 Rocket 4.4 19:12:59 31° SE 19:15:02 40° E 19:20:49 10° NNE
Cosmos 1733 3.0 19:13:48 27° S 19:15:49 77° E 19:19:39 10° NNE
MOS 1 4.2 19:13:05 20° SSE 19:17:11 83° ENE 19:22:55 10° NNW
GRACE-FO 1 4.4 19:15:16 10° N 19:18:59 72° E 19:19:03 72° E
Lacrosse 5 rocket 3.2 19:15:40 10° NW 19:19:19 24° NNE 19:20:43 21° NE
GRACE-FO 2 4.4 19:15:38 10° N 19:19:22 73° E 19:19:25 73° E
Cosmos 2082 Rocket 3.0 19:15:26 10° NNW 19:20:28 32° NE 19:21:17 31° ENE
BREEZE-M DEB (TANK) 4.1 19:19:51 10° W 19:23:19 43° SSW 19:27:36 24° SSE
DMSP B5D2-2 4.0 19:18:02 10° NNE 19:23:21 73° ESE 19:28:37 10° S
BREEZE-M R/B 3.6 19:14:16 10° WSW 19:23:41 82° NNW 19:24:25 54° ENE
OBJECT-B 2.1 19:28:48 34° N 19:28:48 34° N 19:30:48 10° N
Cosmos 1805 3.9 19:23:56 10° SSW 19:27:46 54° WNW 19:31:38 10° N
Cosmos 2142 Rocket 4.5 19:24:37 22° SSE 19:28:40 59° E 19:34:45 10° NNE
Ariane Rocket 3.3 19:28:06 19° S 19:31:40 64° WSW 19:36:45 10° NNW
Milstar 3 Cent rocket 4.3 19:29:38 10° SSW 19:32:15 13° S 19:32:39 13° S
H-2A R/B 3.9 19:29:04 10° SSW 19:33:23 29° W 19:37:49 10° NW
USA 234 4.4 19:38:14 24° S 19:38:14 24° S 19:41:08 10° S
Cosmos 1269 Rocket 4.3 19:32:02 10° NNW 19:37:19 66° WSW 19:39:33 34° S
Cosmos 1626 2.6 19:38:32 10° NNW 19:42:01 59° W 19:42:01 59° W
Okean 1-7 Rocket 4.0 19:38:04 10° N 19:41:51 51° NE 19:41:51 51° NE
MetOp-A 4.4 19:40:20 28° S 19:43:12 66° WSW 19:48:34 10° NNW
USA 186 3.8 19:42:34 23° WSW 19:43:26 26° W 19:46:15 10° NW
COSMOS 2406 3.2 19:40:56 10° NNW 19:46:38 83° WSW 19:47:56 55° SSE
Cosmos 1844 Rocket 4.4 19:41:56 10° WSW 19:46:54 32° NW 19:51:55 10° NNE
ISS -1.9 19:45:28 10° WNW 19:47:46 29° NNW 19:47:46 29° NNW
Cosmos 2278 Rocket 2.3 19:45:01 10° SSW 19:51:32 58° ENE 19:56:16 10° NNE
Lacrosse 4 Rocket 2.6 19:50:13 10° NNW 19:52:52 34° N 19:52:52 34° N
Meteor 1-24 Rocket 4.3 19:53:32 10° NNW 19:59:00 56° W 20:01:37 31° SSW
Cosmos 909 Rocket 4.1 19:52:56 10° NNW 19:59:23 58° NE 19:59:55 56° ENE
Cosmos 2266 Rocket 4.3 19:55:25 10° N 20:00:34 48° NE 20:00:34 48° NE
NOSS 3-4 (A) 3.7 19:56:13 10° SW 20:02:05 64° NW 20:08:26 10° NE
SL-14 R/B 4.4 19:58:22 10° NNW 20:01:55 41° W 20:01:55 41° W
NOSS 3-4 (C) 3.7 19:56:19 10° SW 20:02:12 64° NW 20:08:33 10° NE
Resurs 01 Rocket 2.2 20:03:26 53° NNW 20:03:26 53° NNW 20:06:52 10° NNW
Meteor 2-19 Rocket 4.2 19:57:05 10° N 20:03:14 83° E 20:03:47 74° SE
Cosmos 1833 Rocket 2.7 20:06:04 10° NNW 20:11:43 71° WSW 20:11:54 71° SW
Cosmos 2251 Rocket 3.8 20:09:13 10° NNW 20:13:44 61° N 20:13:44 61° N
CENTAUR R/B 4.4 20:09:13 10° NW 20:16:29 35° WSW 20:22:00 18° SSW
ARIANE 5 R/B 4.2 20:20:05 29° N 20:20:05 29° N 20:22:16 10° N
SPOT 3 Rocket 4.1 20:20:50 50° WSW 20:21:05 51° W 20:26:07 10° NNW
ATLAS 2AS CENTAUR R/B 3.5 20:17:06 10° SW 20:24:58 60° NW 20:32:44 10° NE
ATLAS 3B R/B 2.8 20:22:27 10° NW 20:29:15 65° WSW 20:29:50 62° SSW
Cosmos 1655 Rocket 4.1 20:31:41 10° NNW 20:37:50 70° W 20:37:50 70° W
Lacrosse 5 rocket 3.9 20:54:44 10° NW 20:56:20 21° NW 20:56:20 21° NW
Cosmos 2082 Rocket 3.4 20:59:21 10° NW 21:03:08 37° WNW 21:03:08 37° WNW
Terra 4.3 21:21:45 17° N 21:21:45 17° N 21:22:54 10° N
Cosmos 2278 Rocket 4.2 21:33:00 19° W 21:35:14 24° NW 21:39:48 10° N
